Simultaneous Nadir Overpasses (SNOs) Predictions

Prediction of SNOs between LANDSAT-8 and NPP Satellite Orbit:

Table of predicted SNOs for the next 14.0 days since TLE Epoch: 5/24/2014
Index Date (LANDSAT-8) Time (LANDSAT-8) Lat,Lon (LANDSAT-8) SZA (LANDSAT-8 ) Date (NPP) Time (NPP) Lat,Lon (NPP) SZA (NPP ) Distance(km) Time Diff (sec)
1 05/24/2014 18:17:35 -70.62, 82.68 130.32 05/24/2014 18:16:31 -70.60, 82.63 130.33 2.48 64
2 05/24/2014 19:07:03 70.45,-109.92 49.51 05/24/2014 19:07:15 70.47,-109.85 49.53 3.33 12
3 05/24/2014 19:56:39 -70.02, 57.09 130.92 05/24/2014 19:57:49 -69.98, 58.25 130.99 44.49 70
4 05/27/2014 10:34:06 -70.57,-161.52 130.84 05/27/2014 10:33:29 -70.56,-161.53 130.84 0.64 37
5 05/27/2014 11:23:33 70.46, 5.96 49.05 05/27/2014 11:24:13 70.43, 5.99 49.02 2.68 40
6 05/30/2014 02:01:02 70.89, 147.21 49.06 05/30/2014 01:59:51 70.98, 146.24 49.17 36.50 71
7 05/30/2014 02:50:37 -70.52, -45.72 131.31 05/30/2014 02:50:26 -70.52, -45.69 131.30 1.34 11
8 05/30/2014 03:40:04 70.40, 121.76 48.58 05/30/2014 03:41:10 70.40, 121.81 48.57 2.13 66
9 06/01/2014 18:17:39 70.62, -97.33 48.42 06/01/2014 18:16:43 70.63, -97.41 48.44 3.45 56
10 06/01/2014 19:07:10 -70.47, 70.08 131.74 06/01/2014 19:07:24 -70.49, 70.13 131.71 3.30 14
11 06/01/2014 19:56:49 69.70,-123.38 47.51 06/01/2014 19:57:56 69.74,-121.39 47.51 76.74 67
12 06/04/2014 10:34:13 70.57, 18.46 48.04 06/04/2014 10:33:40 70.56, 18.48 48.03 1.92 33
13 06/04/2014 11:23:43 -70.48,-174.05
